User: anonymous   Login
Location: Unspecified
(0.0000°N, 0.0000°E)
Time: 04:32:13
(UTC+00:00)
Language:

Vela 4A - Orbit

View from above orbital plane
View from above orbital plane
View from above satellite
View from above satellite

Ground track
Ground track

The orbit data is extracted from the following two-line orbital elements,

1 02765U 67040A   16149.19899432 -.00000792  00000-0  00000+0 0  9991
2 02765   5.8063  13.7351 4691265 181.8670   1.2169  0.21493502 38509
Epoch (UTC): 28 May 2016 04:46:33
Eccentricity: 0.4691265
inclination: 5.8063°
perigee height: 56117 km
apogee height: 166571 km
right ascension of ascending node: 13.7351°
argument of perigee: 181.8670°
revolutions per day: 0.21493502
mean anomaly at epoch: 1.2169°
orbit number at epoch: 3850

The dashed part of the orbit path shows where the satellite is in the earth's shadow,  

DLR